Simultaneous Nadir Overpasses (SNOs) Predictions

Prediction of SNOs between GOES-16 and AQUA Satellite Orbit:

Table of predicted SNOs for the next 14.0 days since TLE Epoch: 5/9/2020
Index Date Time (GOES-16) GOES-16 Lat,Lon AQUA Lat,Lon Distance(km) Time Diff (sec)
1 05/10/2020 18:23:18 0.01, -75.20 0.74, -71.67 401.45 80
2 05/11/2020 06:44:33 -0.01, -75.20 0.34, -76.83 185.28 80
3 05/13/2020 06:29:41 -0.01, -75.21 -0.32, -73.87 152.98 80
4 05/13/2020 18:51:05 0.01, -75.22 -0.82, -79.06 436.03 80
5 05/15/2020 06:17:28 -0.01, -75.23 -0.92, -70.90 492.05 80
6 05/15/2020 18:38:53 0.01, -75.25 -0.15, -76.10 96.66 80
7 05/17/2020 18:29:20 0.01, -75.28 0.45, -73.14 243.53 80
8 05/18/2020 06:50:35 -0.00, -75.28 0.63, -78.29 342.07 80
9 05/20/2020 06:38:22 -0.00, -75.32 0.02, -75.33 3.03 80
10 05/22/2020 06:23:30 -0.00, -75.36 -0.65, -72.37 339.84 80
11 05/22/2020 18:44:53 0.00, -75.38 -0.47, -77.56 248.87 80




NCC Satellite Simultaneous Nadir Overpasses (SNOs) Prediction Service
